TimeCST,TemperatureF,Dew PointF,Humidity,Sea Level PressureIn,VisibilityMPH,Wind Direction,Wind SpeedMPH,Gust SpeedMPH,PrecipitationIn,Events,Conditions,WindDirDegrees,DateUTC
12:15 AM,50.0,37.4,62,30.10,10.0,SE,9.2,-,N/A,,Clear,140,2012-11-22 06:15:00
12:35 AM,51.8,37.4,58,30.09,10.0,SSE,9.2,-,N/A,,Clear,150,2012-11-22 06:35:00
12:55 AM,51.8,37.4,58,30.09,10.0,SSE,12.7,-,N/A,,Clear,160,2012-11-22 06:55:00
1:15 AM,51.8,35.6,54,30.09,10.0,SSE,12.7,17.3,N/A,,Clear,160,2012-11-22 07:15:00
1:35 AM,51.8,35.6,54,30.08,10.0,SSE,10.4,-,N/A,,Clear,150,2012-11-22 07:35:00
1:55 AM,51.8,35.6,54,30.07,10.0,SE,11.5,-,N/A,,Clear,140,2012-11-22 07:55:00
2:15 AM,51.8,35.6,54,30.07,10.0,SSE,13.8,17.3,N/A,,Clear,150,2012-11-22 08:15:00
2:35 AM,51.8,35.6,54,30.07,10.0,SSE,11.5,-,N/A,,Clear,150,2012-11-22 08:35:00
2:55 AM,51.8,35.6,54,30.07,10.0,SSE,11.5,17.3,N/A,,Clear,150,2012-11-22 08:55:00
3:15 AM,51.8,35.6,54,30.06,10.0,SSE,11.5,-,N/A,,Clear,150,2012-11-22 09:15:00
3:35 AM,50.0,37.4,62,30.05,10.0,SE,11.5,-,N/A,,Clear,140,2012-11-22 09:35:00
3:55 AM,50.0,37.4,62,30.05,10.0,SE,11.5,-,N/A,,Clear,140,2012-11-22 09:55:00
4:15 AM,51.8,37.4,58,30.04,10.0,SSE,13.8,18.4,N/A,,Clear,150,2012-11-22 10:15:00
4:35 AM,51.8,37.4,58,30.04,10.0,SSE,13.8,19.6,N/A,,Clear,150,2012-11-22 10:35:00
4:55 AM,51.8,37.4,58,30.04,10.0,SSE,13.8,19.6,N/A,,Clear,150,2012-11-22 10:55:00
5:15 AM,51.8,37.4,58,30.03,10.0,SSE,12.7,-,N/A,,Clear,150,2012-11-22 11:15:00
5:35 AM,51.8,37.4,58,30.03,10.0,SSE,12.7,-,N/A,,Clear,150,2012-11-22 11:35:00
5:55 AM,51.8,37.4,58,30.03,10.0,SSE,11.5,-,N/A,,Clear,150,2012-11-22 11:55:00
6:15 AM,53.6,37.4,54,30.03,10.0,SSE,11.5,-,N/A,,Clear,150,2012-11-22 12:15:00
6:35 AM,53.6,37.4,54,30.03,10.0,SSE,12.7,17.3,N/A,,Clear,150,2012-11-22 12:35:00
6:55 AM,53.6,37.4,54,30.03,10.0,SSE,13.8,19.6,N/A,,Clear,150,2012-11-22 12:55:00
7:15 AM,53.6,37.4,54,30.02,10.0,SSE,12.7,19.6,N/A,,Clear,150,2012-11-22 13:15:00
7:35 AM,53.6,37.4,54,30.03,10.0,SSE,11.5,17.3,N/A,,Clear,160,2012-11-22 13:35:00
7:55 AM,53.6,37.4,54,30.04,10.0,SSE,11.5,-,N/A,,Clear,150,2012-11-22 13:55:00
8:15 AM,57.2,39.2,51,30.04,10.0,South,13.8,20.7,N/A,,Clear,170,2012-11-22 14:15:00
8:35 AM,57.2,39.2,51,30.04,10.0,South,15.0,21.9,N/A,,Clear,170,2012-11-22 14:35:00
8:55 AM,57.2,39.2,51,30.04,10.0,South,12.7,18.4,N/A,,Clear,170,2012-11-22 14:55:00
9:15 AM,59.0,39.2,48,30.03,10.0,SSE,11.5,19.6,N/A,,Clear,160,2012-11-22 15:15:00
9:35 AM,59.0,41.0,51,30.03,10.0,SSE,9.2,-,N/A,,Clear,160,2012-11-22 15:35:00
9:55 AM,62.6,41.0,45,30.03,10.0,South,12.7,18.4,N/A,,Clear,180,2012-11-22 15:55:00
10:15 AM,62.6,41.0,45,30.03,10.0,South,15.0,21.9,N/A,,Clear,190,2012-11-22 16:15:00
10:35 AM,64.4,41.0,42,30.03,10.0,South,18.4,21.9,N/A,,Clear,190,2012-11-22 16:35:00
10:55 AM,66.2,41.0,40,30.02,10.0,South,15.0,26.5,N/A,,Clear,190,2012-11-22 16:55:00
11:15 AM,68.0,42.8,40,30.01,10.0,South,16.1,24.2,N/A,,Clear,190,2012-11-22 17:15:00
11:35 AM,68.0,42.8,40,30.00,10.0,SSW,17.3,28.8,N/A,,Clear,200,2012-11-22 17:35:00
11:55 AM,68.0,42.8,40,29.99,10.0,SSW,16.1,24.2,N/A,,Clear,200,2012-11-22 17:55:00
12:15 PM,68.0,42.8,40,29.98,10.0,South,18.4,24.2,N/A,,Clear,190,2012-11-22 18:15:00
12:35 PM,68.0,42.8,40,29.98,10.0,South,17.3,24.2,N/A,,Clear,190,2012-11-22 18:35:00
12:55 PM,69.8,42.8,38,29.97,10.0,South,19.6,26.5,N/A,,Clear,190,2012-11-22 18:55:00
1:15 PM,69.8,42.8,38,29.96,10.0,SSW,18.4,28.8,N/A,,Clear,200,2012-11-22 19:15:00
1:35 PM,68.0,42.8,40,29.95,10.0,South,20.7,31.1,N/A,,Mostly Cloudy,190,2012-11-22 19:35:00
1:55 PM,69.8,42.8,38,29.94,10.0,South,15.0,28.8,N/A,,Scattered Clouds,180,2012-11-22 19:55:00
2:15 PM,68.0,42.8,40,29.94,10.0,South,16.1,21.9,N/A,,Clear,190,2012-11-22 20:15:00
2:35 PM,68.0,42.8,40,29.94,10.0,South,12.7,24.2,N/A,,Clear,180,2012-11-22 20:35:00
2:55 PM,68.0,42.8,40,29.94,10.0,SSW,16.1,24.2,N/A,,Clear,200,2012-11-22 20:55:00
3:15 PM,66.2,42.8,43,29.95,10.0,SSW,17.3,23.0,N/A,,Clear,200,2012-11-22 21:15:00
3:35 PM,64.4,42.8,45,29.95,10.0,SSW,12.7,19.6,N/A,,Clear,200,2012-11-22 21:35:00
3:55 PM,64.4,42.8,45,29.96,10.0,South,6.9,-,N/A,,Scattered Clouds,190,2012-11-22 21:55:00
4:15 PM,64.4,42.8,45,29.97,10.0,SSW,8.1,-,N/A,Thunderstorm,Mostly Cloudy,200,2012-11-22 22:15:00
4:55 PM,62.6,44.6,52,29.99,10.0,South,5.8,-,N/A,,Overcast,190,2012-11-22 22:55:00
5:15 PM,60.8,46.4,59,29.99,10.0,South,8.1,-,N/A,Rain,Light Rain,170,2012-11-22 23:15:00
5:35 PM,59.0,50.0,72,29.99,10.0,South,6.9,-,N/A,Rain,Light Rain,180,2012-11-22 23:35:00
5:55 PM,59.0,48.2,67,30.00,10.0,South,6.9,-,N/A,,Light Drizzle,170,2012-11-22 23:55:00
6:15 PM,57.2,48.2,72,30.01,10.0,SSE,8.1,-,N/A,Thunderstorm,Mostly Cloudy,160,2012-11-23 00:15:00
6:35 PM,59.0,48.2,67,30.02,10.0,South,8.1,-,N/A,,Mostly Cloudy,170,2012-11-23 00:35:00
6:55 PM,59.0,46.4,63,30.02,10.0,South,6.9,-,N/A,,Overcast,180,2012-11-23 00:55:00
7:15 PM,59.0,46.4,63,30.02,10.0,South,6.9,-,N/A,,Overcast,180,2012-11-23 01:15:00
7:55 PM,59.0,46.4,63,30.02,10.0,SSW,5.8,-,N/A,Thunderstorm,Overcast,200,2012-11-23 01:55:00
8:15 PM,59.0,46.4,63,30.03,10.0,SSW,4.6,-,N/A,,Overcast,200,2012-11-23 02:15:00
8:35 PM,59.0,46.4,63,30.03,10.0,SSW,4.6,-,N/A,,Overcast,200,2012-11-23 02:35:00
8:55 PM,59.0,46.4,63,30.07,10.0,West,10.4,17.3,N/A,,Overcast,270,2012-11-23 02:55:00
9:15 PM,59.0,48.2,67,30.09,10.0,WNW,9.2,-,N/A,,Overcast,290,2012-11-23 03:15:00
9:35 PM,59.0,44.6,59,30.10,10.0,NW,13.8,-,N/A,,Overcast,320,2012-11-23 03:35:00
9:55 PM,59.0,39.2,48,30.12,10.0,NW,17.3,26.5,N/A,,Overcast,320,2012-11-23 03:55:00
10:15 PM,55.4,37.4,51,30.15,10.0,NNW,15.0,26.5,N/A,,Overcast,330,2012-11-23 04:15:00
10:35 PM,55.4,35.6,47,30.16,10.0,NNW,23.0,29.9,N/A,,Overcast,330,2012-11-23 04:35:00
10:55 PM,53.6,35.6,51,30.18,10.0,NW,16.1,19.6,N/A,,Overcast,320,2012-11-23 04:55:00
11:15 PM,53.6,33.8,47,30.19,10.0,NW,15.0,24.2,N/A,,Overcast,320,2012-11-23 05:15:00
11:35 PM,51.8,32.0,47,30.20,10.0,NNW,13.8,24.2,N/A,,Mostly Cloudy,330,2012-11-23 05:35:00
11:55 PM,51.8,32.0,47,30.22,10.0,NNW,11.5,19.6,N/A,,Mostly Cloudy,330,2012-11-23 05:55:00